LiveATC.Net - Listen to live air traffic control over the Internet!


ICAO: URKK  IATA: KRR   Airport: Pashkovskiy General Airport
City: Krasnodar
Country: Russia   Continent: Europe
URKK METAR Weather: URKK 282030Z 06003MPS CAVOK 13/09 Q1015 R23L/CLRD70 NOSIG RMK QFE758
URKK Flight Activity (FlightAware)

URKK Gnd/Twr/App
Feed Status: UP   Listeners: 3
Listen in your browser - HTML5 player (in browser, HTML5)
Click here to listen with your own player (launches your MP3 player)
Archive Access: URKK Gnd/Twr/App
FacilityFrequency
Krasnodar Approach129.600
Krasnodar Ground119.000
Krasnodar Radar121.300
Krasnodar Tower118.200

NOTICE

Unauthorized use prohibited. See LiveATC.net Terms of Service


Airport/ARTCC Code
Frequency Search
(e.g., 124.400, 128.75)
Site-wide search
 


Browse Feeds
Top 50 Feeds
Coverage Map
Bad Weather Areas

LiveATC FAQ
Offer LiveATC feed
Contact LiveATC.net
Press Inquiries

LiveATC on iPhone
LiveATC on Android

Windows Phone
Windows 8/10

LiveATC Mobile
(Mobile browser)

ATC Audio Archives
Interesting Recordings

LiveATC Forums


Home Page
About LiveATC.net
Make a Donation
Terms of Use
Privacy Policy

Canadian Air Freqs

AIRMETs/SIGMETs

FAA Airport Status
Nat'l Airspace Status
Arrival Demand Charts


Server Software By:
Icecast.org
Liquidsoap